Russell, KS

2:39 PM CDT on March 27, 2017 (GMT -0500)
Russell Municipal

Weather History for KRSL - March, 2013

Change the Weather History Date:

Tuesday, March 19, 2013

  Actual Average Record
Temperature  
Mean Temperature 38 °F -  
Max Temperature 53 °F 56 °F 90 °F (2017)
Min Temperature 23 °F 32 °F 7 °F (1965)
Degree Days  
Heating Degree Days 27    
Moisture  
Dew Point 21 °F    
Average Humidity 53    
Maximum Humidity 74    
Minimum Humidity 28    
Precipitation  
Precipitation 0.00 in - - ()
Sea Level Pressure  
Sea Level Pressure 30.18 in    
Wind  
Wind Speed 9 mph (ESE)    
Max Wind Speed 18 mph    
Max Gust Speed 24 mph    
Visibility 10 miles    
Events      
Averages and records for this station are not official NWS values.
T = Trace of Precipitation, MM = Missing Value Source: NWS Daily Summary

Daily Weather History Graph

Daily Weather History Graph

Search for Another Location

Airport or City:

Trip Planner

Search our weather history database for the weather conditions in past years. The results will help you decide how hot, cold, wet, or windy it might be!

Date:

Astronomy

Mar. 19, 2013 Rise Set
Actual Time 7:39 AM CDT 7:46 PM CDT
Civil Twilight 7:13 AM CDT 8:13 PM CDT
Nautical Twilight 6:42 AM CDT 8:44 PM CDT
Astronomical Twilight 6:10 AM CDT 9:15 PM CDT
Moon 12:34 PM CDT (3/19) 2:31 AM CDT (3/19)
Length of Visible Light 12h 59m
Length of Day
12h 06m
Waxing Crescent, 50% of the Moon is Illuminated
Mar 19
Waxing Crescent
Mar 19
First Quarter
Mar 27
Full
Apr 2
Last Quarter
Apr 10
New

Hourly Weather History & Observations

Time (CDT) Temp. Windchill Dew Point Humidity Pressure Visibility Wind Dir Wind Speed Gust Speed Precip Events Conditions
12:53 AM 30.9 °F 21.7 °F 18.0 °F 59% 30.06 in 10.0 mi ENE 11.5 mph - N/A   Clear
1:53 AM 28.9 °F 19.2 °F 17.1 °F 61% 30.08 in 10.0 mi ENE 11.5 mph - N/A   Clear
2:53 AM 25.0 °F 16.3 °F 15.1 °F 66% 30.10 in 10.0 mi East 8.1 mph - N/A   Clear
3:53 AM 28.0 °F 20.8 °F 17.1 °F 63% 30.11 in 10.0 mi NE 6.9 mph - N/A   Clear
4:53 AM 25.0 °F 18.1 °F 16.0 °F 69% 30.10 in 10.0 mi East 5.8 mph - N/A   Clear
5:53 AM 26.1 °F 19.4 °F 16.0 °F 66% 30.12 in 10.0 mi SE 5.8 mph - N/A   Clear
6:53 AM 24.1 °F 14.4 °F 16.0 °F 71% 30.13 in 10.0 mi SSE 9.2 mph - N/A   Clear
7:53 AM 23.0 °F 14.7 °F 16.0 °F 74% 30.14 in 10.0 mi SSE 6.9 mph - N/A   Clear
8:53 AM 30.9 °F 20.7 °F 19.0 °F 61% 30.14 in 10.0 mi SSE 13.8 mph - N/A   Clear
9:53 AM 37.0 °F 28.5 °F 21.0 °F 52% 30.18 in 10.0 mi SSE 13.8 mph - N/A   Clear
10:53 AM 39.9 °F 30.8 °F 23.0 °F 51% 30.19 in 10.0 mi SSE 18.4 mph 24.2 mph N/A   Mostly Cloudy
11:53 AM 45.0 °F 41.8 °F 24.1 °F 44% 30.21 in 10.0 mi SE 5.8 mph - N/A   Clear
12:53 PM 46.9 °F - 23.0 °F 39% 30.22 in 10.0 mi Variable 5.8 mph - N/A   Clear
1:53 PM 48.0 °F - 21.9 °F 36% 30.21 in 10.0 mi Variable 5.8 mph - N/A   Overcast
2:53 PM 48.0 °F - 21.9 °F 36% 30.21 in 10.0 mi East 3.5 mph - N/A   Overcast
3:53 PM 50.0 °F - 21.9 °F 33% 30.18 in 10.0 mi Calm Calm - N/A   Scattered Clouds
4:28 PM 53.6 °F - 21.2 °F 28% 30.14 in 10.0 mi Variable 5.8 mph - N/A   Scattered Clouds
4:53 PM 51.1 °F - 23.0 °F 33% 30.19 in 10.0 mi ENE 8.1 mph - N/A   Scattered Clouds
5:53 PM 51.1 °F - 21.9 °F 32% 30.19 in 10.0 mi NE 6.9 mph - N/A   Clear
6:53 PM 50.0 °F - 24.1 °F 36% 30.21 in 10.0 mi East 6.9 mph - N/A   Scattered Clouds
7:53 PM 41.0 °F 36.4 °F 26.1 °F 55% 30.25 in 10.0 mi ESE 6.9 mph - N/A   Clear
8:53 PM 37.0 °F 30.4 °F 26.1 °F 65% 30.24 in 10.0 mi SE 9.2 mph - N/A   Clear
9:53 PM 39.2 °F 35.0 °F 26.6 °F 61% 30.22 in 10.0 mi SSE 5.8 mph - N/A   Overcast
10:53 PM 37.0 °F 31.6 °F 26.1 °F 65% 30.30 in 10.0 mi NNE 6.9 mph - N/A   Mostly Cloudy
11:53 PM 36.0 °F 32.1 °F 27.0 °F 70% 30.32 in 10.0 mi NE 4.6 mph - N/A   Clear